Regional Weather Roundup
Issued by NWS

Home | Current Version | Previous Version | Text Only | Print | Product List | Glossary On
Versions: 1 2 3 4 5 6 7 8 9 10 11 12 13 14 15 16 17 18 19 20 21 22 23 24 25 26 27 28 29 30 31 32 33 34 35 36 37 38 39 40 41 42 43 44 45 46 47 48 49 50
000
ASUS42 KFFC 281103
RWRGA
WEATHER ROUNDUP FOR GEORGIA
NATIONAL WEATHER SERVICE PEACHTREE CITY GA
600 AM EST FRI NOV 28 2014

NOTE: "FAIR" INDICATES FEW OR NO CLOUDS BELOW 12,000 FEET WITH NO
SIGNIFICANT WEATHER AND/OR OBSTRUCTIONS TO VISIBILITY.

* = USE WITH CAUTION. THE STATIONS MARKED WITH AN ASTERISK MAY NOT
REPORT WEATHER SUCH AS PRECIPITATION, FOG, OR THUNDER AND ARE NOT
QUALITY CONTROLLED BY NWS.

THE REMARK "TC" DENOTES TEMPERATURE READING IN DEGREES CELSIUS.

GAZ001>058-281200-
NORTH GEORGIA

CITY           SKY/WX    TMP DP  RH WIND       PRES   REMARKS
ATLANTA        CLEAR     29  21  72 NW7       30.35F WCI  22
ATHENS         CLEAR     28  21  75 NW3       30.34S
CHAMBLEE       CLEAR     28  20  71 N5        30.35F WCI  23
PEACHTREE CITY CLEAR     29  22  75 NW5       30.37F WCI  24
ROME           CLEAR     27  21  78 NW6       30.41R WCI  20
WEST ATLANTA   CLEAR     28  20  71 CALM      30.37F
GAINESVILLE    CLEAR     29  20  69 NW9       30.33F WCI  20
CARTERSVILLE   CLEAR     26  20  77 CALM      30.41R


CITY           SKY/WX    TMP DP  RH WIND       PRES   REMARKS
DALTON*        CLEAR     28  23  80 NW5       30.41R WCI  23
MARIETTA       CLEAR     28  21  76 NW7       30.35F WCI  21
$$

GAZ059>098-102>109-281200-
CENTRAL GEORGIA

CITY           SKY/WX    TMP DP  RH WIND       PRES   REMARKS
AUGUSTA-BUSH   CLEAR     27  25  92 CALM      30.38R
AUGUSTA-DANIEL CLEAR     33  27  78 NW3       30.36S
COLUMBUS       CLEAR     31  26  82 CALM      30.39F
MACON          CLEAR     27  26  96 CALM      30.38S
ROBINS AFB     CLEAR     31  26  80 N3        30.38R


CITY           SKY/WX    TMP DP  RH WIND       PRES   REMARKS
LAGRANGE*      CLEAR     29  27  91 CALM      30.39S
SYLVANIA*      CLEAR     34  32  92 NW3       30.37R
MILLEDGEVILLE* CLEAR     32  30  93 CALM      30.37S
$$

GAZ099>101-110>166-281200-
SOUTH GEORGIA

CITY           SKY/WX    TMP DP  RH WIND       PRES   REMARKS
SAVANNAH       CLEAR     36  28  73 N7        30.35R WCI  30
VALDOSTA       CLEAR     34  29  82 VRB3      30.36S
ALMA           CLEAR     34  28  79 N5        30.36R WCI  30
ST SIMONS      CLEAR     38  29  70 N9        30.34R WCI  31
FT STEWART     CLEAR     35  29  76 NW8       30.34R WCI  29
ALBANY         CLEAR     29  27  92 CALM      30.40R
HUNTER AFB     CLEAR     36  29  75 N9        30.33R WCI  29
MOODY AFB      CLEAR     33  29  83 N6        30.35S WCI  28
BRUNSWICK      CLEAR     37  30  75 N6        30.35S WCI  33


CITY           SKY/WX    TMP DP  RH WIND       PRES   REMARKS
BAINBRIDGE*    CLEAR     37  34  87 N3        30.39S
MOULTRIE*      CLEAR     36  32  87 N6        30.36S WCI  31
VIDALIA*       CLEAR     34  30  86 N5        30.36S WCI  30
WAYCROSS*      CLEAR     36  32  86 N3        30.36S
DOUGLAS*       CLEAR     36  30  80 N5        30.38S WCI  32
$$



USA.gov is the U.S. government's official web portal to all federal, state and local government web resources and services.